TimeEDT,TemperatureF,Dew PointF,Humidity,Sea Level PressureIn,VisibilityMPH,Wind Direction,Wind SpeedMPH,Gust SpeedMPH,PrecipitationIn,Events,Conditions,WindDirDegrees,DateUTC
12:15 AM,41.5,35.8,80,29.93,10.0,North,5.8,-,N/A,,Overcast,10,2013-03-17 04:15:00
12:35 AM,40.6,35.8,83,29.92,10.0,North,5.8,-,N/A,,Scattered Clouds,10,2013-03-17 04:35:00
12:55 AM,40.3,35.6,83,29.93,10.0,North,6.9,-,N/A,,Scattered Clouds,360,2013-03-17 04:55:00
1:15 AM,39.9,35.6,85,29.93,10.0,North,6.9,-,N/A,,Mostly Cloudy,360,2013-03-17 05:15:00
1:35 AM,39.7,35.4,85,29.94,10.0,North,5.8,-,N/A,,Overcast,360,2013-03-17 05:35:00
1:55 AM,39.6,35.2,85,29.95,10.0,North,5.8,-,N/A,,Overcast,360,2013-03-17 05:55:00
2:15 AM,39.4,35.1,84,29.95,10.0,North,5.8,-,N/A,,Mostly Cloudy,360,2013-03-17 06:15:00
2:35 AM,39.0,34.9,85,29.96,10.0,North,8.1,-,N/A,,Scattered Clouds,350,2013-03-17 06:35:00
2:55 AM,38.3,34.9,87,29.96,7.0,North,9.2,-,N/A,,Clear,350,2013-03-17 06:55:00
3:15 AM,37.9,34.9,89,29.97,7.0,North,8.1,-,N/A,,Clear,350,2013-03-17 07:15:00
3:35 AM,37.6,34.7,89,29.98,7.0,North,6.9,-,N/A,,Clear,10,2013-03-17 07:35:00
3:55 AM,38.3,34.2,85,29.96,7.0,North,12.7,19.6,N/A,,Clear,10,2013-03-17 07:55:00
4:15 AM,38.7,33.1,80,29.97,10.0,North,8.1,18.4,N/A,,Clear,10,2013-03-17 08:15:00
4:55 AM,38.3,32.5,80,29.99,10.0,North,5.8,-,N/A,,Clear,10,2013-03-17 08:55:00
5:15 AM,37.6,32.9,83,30.00,10.0,North,3.5,-,N/A,,Clear,10,2013-03-17 09:15:00
5:35 AM,37.4,32.4,82,30.02,10.0,Calm,Calm,-,N/A,,Clear,0,2013-03-17 09:35:00
5:55 AM,36.7,32.2,84,30.02,10.0,Calm,Calm,-,N/A,,Clear,0,2013-03-17 09:55:00
7:15 AM,34.7,32.0,90,30.06,10.0,Calm,Calm,-,N/A,,Clear,0,2013-03-17 11:15:00
7:35 AM,35.2,33.3,92,30.07,7.0,Calm,Calm,-,N/A,,Clear,0,2013-03-17 11:35:00
7:55 AM,37.0,32.5,84,30.08,10.0,Calm,Calm,-,N/A,,Clear,0,2013-03-17 11:55:00
8:15 AM,38.5,32.4,79,30.09,10.0,Calm,Calm,-,N/A,,Clear,0,2013-03-17 12:15:00
8:35 AM,39.0,32.5,78,30.11,10.0,Calm,Calm,-,N/A,,Mostly Cloudy,0,2013-03-17 12:35:00
8:55 AM,39.6,33.8,80,30.12,10.0,Calm,Calm,-,N/A,,Overcast,0,2013-03-17 12:55:00
9:15 AM,40.5,33.3,75,30.11,10.0,Calm,Calm,-,N/A,,Overcast,0,2013-03-17 13:15:00
9:35 AM,41.9,31.6,67,30.13,10.0,NNE,8.1,-,N/A,,Overcast,20,2013-03-17 13:35:00
9:55 AM,42.4,31.3,65,30.13,10.0,North,8.1,-,N/A,,Overcast,360,2013-03-17 13:55:00
10:15 AM,42.8,31.3,64,30.14,10.0,North,6.9,-,N/A,,Overcast,360,2013-03-17 14:15:00
10:35 AM,42.8,31.1,63,30.16,10.0,North,6.9,-,N/A,,Overcast,350,2013-03-17 14:35:00
10:55 AM,43.2,31.3,63,30.16,10.0,NNE,6.9,-,N/A,,Overcast,20,2013-03-17 14:55:00
11:15 AM,42.6,30.9,63,30.17,10.0,North,8.1,-,N/A,,Overcast,360,2013-03-17 15:15:00
11:35 AM,42.4,31.5,65,30.17,10.0,NNE,5.8,-,N/A,,Overcast,30,2013-03-17 15:35:00
11:55 AM,41.9,31.5,66,30.17,10.0,North,6.9,-,N/A,,Overcast,360,2013-03-17 15:55:00
12:15 PM,41.9,31.5,66,30.17,10.0,North,5.8,-,N/A,,Overcast,350,2013-03-17 16:15:00
12:55 PM,41.4,31.8,69,30.19,10.0,North,5.8,-,N/A,,Overcast,360,2013-03-17 16:55:00
1:15 PM,41.2,31.8,69,30.18,10.0,North,4.6,-,N/A,,Overcast,360,2013-03-17 17:15:00
1:55 PM,41.0,31.5,69,30.17,10.0,NNE,5.8,-,N/A,,Overcast,30,2013-03-17 17:55:00
2:15 PM,41.0,31.8,70,30.17,10.0,North,5.8,-,N/A,,Overcast,10,2013-03-17 18:15:00
2:35 PM,41.4,31.8,69,30.17,10.0,North,5.8,-,N/A,,Overcast,360,2013-03-17 18:35:00
2:55 PM,41.7,31.8,68,30.17,10.0,North,6.9,-,N/A,,Overcast,350,2013-03-17 18:55:00
3:15 PM,41.9,31.3,66,30.17,10.0,North,3.5,-,N/A,,Overcast,360,2013-03-17 19:15:00
3:35 PM,41.9,30.9,65,30.18,10.0,NW,3.5,-,N/A,,Overcast,320,2013-03-17 19:35:00
3:55 PM,42.1,30.7,64,30.19,10.0,NNW,4.6,-,N/A,,Mostly Cloudy,330,2013-03-17 19:55:00
4:15 PM,41.9,30.4,64,30.19,10.0,WNW,3.5,-,N/A,,Mostly Cloudy,300,2013-03-17 20:15:00
4:35 PM,42.3,29.8,61,30.18,10.0,North,4.6,-,N/A,,Mostly Cloudy,10,2013-03-17 20:35:00
4:55 PM,42.4,29.3,60,30.19,10.0,NNE,4.6,-,N/A,,Mostly Cloudy,20,2013-03-17 20:55:00
5:15 PM,42.3,28.4,58,30.19,10.0,Calm,Calm,-,N/A,,Overcast,0,2013-03-17 21:15:00
5:35 PM,42.1,27.9,57,30.20,10.0,NNW,4.6,-,N/A,,Overcast,330,2013-03-17 21:35:00
5:55 PM,41.9,27.9,58,30.20,10.0,Calm,Calm,-,N/A,,Overcast,0,2013-03-17 21:55:00
6:15 PM,41.9,27.5,57,30.20,10.0,NW,3.5,-,N/A,,Overcast,320,2013-03-17 22:15:00
6:35 PM,41.9,27.7,57,30.20,10.0,Calm,Calm,-,N/A,,Overcast,0,2013-03-17 22:35:00
6:55 PM,42.1,27.3,56,30.21,10.0,Calm,Calm,-,N/A,,Overcast,0,2013-03-17 22:55:00
7:15 PM,41.9,27.5,57,30.22,10.0,Calm,Calm,-,N/A,,Overcast,0,2013-03-17 23:15:00
7:35 PM,41.9,27.7,57,30.23,10.0,Calm,Calm,-,N/A,,Overcast,0,2013-03-17 23:35:00
7:55 PM,41.9,28.6,59,30.23,10.0,East,3.5,-,N/A,,Overcast,100,2013-03-17 23:55:00
8:15 PM,41.4,32.0,69,30.24,10.0,ESE,3.5,-,N/A,,Overcast,120,2013-03-18 00:15:00
8:35 PM,41.0,32.0,70,30.25,10.0,East,3.5,-,N/A,,Overcast,100,2013-03-18 00:35:00
8:55 PM,40.6,31.6,70,30.26,10.0,ESE,3.5,-,N/A,,Overcast,110,2013-03-18 00:55:00
9:15 PM,40.5,31.6,71,30.26,10.0,East,4.6,-,N/A,,Overcast,100,2013-03-18 01:15:00
9:35 PM,40.3,31.6,71,30.26,10.0,Calm,Calm,-,N/A,,Overcast,0,2013-03-18 01:35:00
9:55 PM,40.1,31.6,72,30.26,10.0,Calm,Calm,-,N/A,,Overcast,0,2013-03-18 01:55:00
10:15 PM,40.1,31.6,72,30.27,10.0,Calm,Calm,-,N/A,,Overcast,0,2013-03-18 02:15:00
10:35 PM,40.1,31.6,72,30.28,10.0,Calm,Calm,-,N/A,,Overcast,0,2013-03-18 02:35:00
10:55 PM,40.3,31.1,70,30.28,10.0,Calm,Calm,-,N/A,,Overcast,0,2013-03-18 02:55:00
11:15 PM,40.3,30.2,67,30.28,10.0,NE,3.5,-,N/A,,Overcast,50,2013-03-18 03:15:00
11:35 PM,40.1,29.7,66,30.28,10.0,ENE,3.5,-,N/A,,Overcast,60,2013-03-18 03:35:00
11:55 PM,40.1,29.3,65,30.29,10.0,ENE,3.5,-,N/A,,Overcast,60,2013-03-18 03:55:00